Location: Unspecified
(0.0000°N, 0.0000°E)
Time: 05:27:36
(UTC+00:00)

Vanguard 2 - Pass Details

Date: 15 December 2017
Orbit: 552 x 2940 km, 32.9° (Epoch: 17 January)

Event Time Altitude Azimuth Distance (km) Brightness Sun altitude
Rises 06:29:06 0° 220° (SW) 6,164 12.0 7.8°
Reaches altitude 10° 06:34:55 10° 204° (SSW) 5,464 11.9 9.1°
Maximum altitude 06:46:18 21° 162° (SSE) 4,904 12.4 11.7°
Drops below altitude 10° 06:57:56 10° 120° (ESE) 5,632 14.7 14.4°
Sets 07:03:58 0° 105° (ESE) 6,407 14.0 15.8°
